[[{"header":{"parameterUnit":"m.s-1","parameterCategory":1,"la1":30.2991,"la2":30.254,"lo1":-89.0895,"lo2":-89.0444,"dx":0.0017,"dy":0.0017,"nx":28,"ny":28,"refTime":"2022-11-07T03:00:00:Z","depth":0,"parameterNumber":2,"parameterNumberName":"U-component_of_WINDS"},"data":[0,0,0,0,0,0,0,0,0,0,0,0,0,0,0,0,0,0,0,0,0,0,0,0,0,0,0,0,0,0,0,0,0,0,0,0,0,0,0,0,0,0,0,0,0,0,0,0,0,0,0,0,0,0,0,0,0,0,-2.5636,-2.5635,0,-2.5517,-2.5515,-2.5514,-2.5456,-2.5456,-2.5456,-2.5456,-2.5334,-2.533,-2.5327,0,0,0,0,0,0,0,0,0,0,0,0,0,-2.5817,-2.5814,-2.5637,-2.5635,-2.5634,-2.5517,-2.5515,-2.5514,-2.5456,-2.5456,-2.5456,-2.5456,-2.5335,-2.5331,-2.5327,0,0,0,0,0,0,0,0,0,0,0,0,0,-2.5722,-2.5813,-2.5637,-2.5591,-2.5585,-2.5517,-2.5515,-2.5513,-2.5456,-2.5456,-2.5456,-2.5456,-2.5336,-2.5331,-2.5326,-2.5295,0,0,-2.5311,-2.5309,0,0,0,0,0,0,0,0,-2.5728,-2.5716,-2.5599,-2.5594,-2.5588,-2.5501,-2.5534,-2.544,-2.5456,-2.5505,-2.5456,-2.5456,-2.5389,-2.538,-2.5358,-2.5289,-2.5284,-2.5311,-2.5308,-2.5306,-2.5304,0,0,0,0,0,0,0,-2.5734,-2.572,-2.5589,-2.5597,-2.5591,-2.5577,-2.5563,-2.5516,-2.5449,-2.5501,-2.5496,-2.5483,-2.5386,-2.5362,-2.5354,-2.5282,-2.5311,-2.5307,-2.5304,-2.5302,-2.5185,-2.5184,0,0,0,0,0,0,-2.5748,-2.5726,-2.5593,-2.5586,-2.5659,-2.5573,-2.5558,-2.5529,-2.5449,-2.5437,-2.5483,-2.5481,-2.5371,-2.536,-2.535,-2.5309,-2.5306,-2.5301,-2.5298,-2.5185,-2.5185,-2.5184,0,0,0,0,0,0,-2.5752,-2.5737,-2.5598,-2.5655,-2.5636,-2.557,-2.5538,-2.5527,-2.5503,-2.5435,-2.5423,-2.5471,-2.537,-2.5357,-2.5309,-2.5304,-2.5299,-2.5294,-2.5185,-2.5185,-2.5184,-2.5226,0,0,0,0,0,0,-2.5758,-2.5739,-2.5725,-2.5655,-2.5633,-2.5559,-2.5537,-2.5524,-2.5494,-2.549,-2.5421,-2.5409,-2.5369,-2.5317,-2.5305,-2.5297,-2.5291,-2.5185,-2.5185,-2.5185,-2.5225,-2.5228,-2.523,0,0,0,0,0,-2.5764,-2.5741,-2.5725,-2.5709,-2.5615,-2.5559,-2.5546,-2.5501,-2.5494,-2.5481,-2.5438,-2.5411,-2.5307,-2.5313,-2.5298,-2.5289,-2.5185,-2.5185,-2.5185,-2.5224,-2.5227,-2.523,0,0,0,0,0,0,-2.5812,-2.5731,-2.5712,-2.5665,-2.562,-2.5549,-2.553,-2.5505,-2.546,-2.5458,-2.5404,-2.5389,-2.5347,-2.5313,-2.5321,-2.5256,-2.5244,-2.524,-2.5279,-2.5281,-2.5283,-2.5292,-2.5286,0,0,0,0,0,-2.5817,-2.5778,-2.571,-2.5675,-2.5653,-2.5596,-2.557,-2.5539,-2.5489,-2.547,-2.5423,-2.5376,-2.5333,-2.5305,-2.5261,-2.5221,-2.5205,-2.5207,-2.521,-2.5212,-2.5209,-2.5187,-2.5188,-2.5183,-2.5183,-2.5183,0,0,-2.5827,-2.5778,-2.5757,-2.5684,-2.5644,-2.5606,-2.558,-2.554,-2.5511,-2.5463,-2.5416,-2.5381,-2.5325,-2.5282,-2.526,-2.5252,-2.5208,-2.5211,-2.5214,-2.521,-2.5187,-2.5188,-2.5188,-2.5183,-2.5183,-2.5183,0,0,-2.5826,-2.5785,-2.5752,-2.5714,-2.5656,-2.5618,-2.5611,-2.5545,-2.552,-2.5472,-2.5436,-2.5402,-2.5327,-2.5289,-2.5261,-2.5249,-2.5223,-2.5236,-2.5247,-2.5227,-2.5227,-2.5227,-2.5224,-2.5223,-2.5234,-2.5234,-2.5234,0,-2.5846,-2.5786,-2.5739,-2.5701,-2.5671,-2.5627,-2.5595,-2.556,-2.549,-2.5471,-2.5463,-2.5371,-2.533,-2.5278,-2.5276,-2.5253,-2.5244,-2.5243,-2.5231,-2.523,-2.523,-2.5226,-2.5225,-2.5236,-2.5236,-2.5236,-2.5236,0,-2.5814,-2.5773,-2.5754,-2.5689,-2.5656,-2.5621,-2.557,-2.5543,-2.5516,-2.548,-2.5433,-2.5383,-2.533,-2.5315,-2.5288,-2.526,-2.5257,-2.5241,-2.5228,-2.5233,-2.5229,-2.5227,-2.5239,-2.5238,-2.5238,-2.5237,0,0,-2.5836,-2.5748,-2.5742,-2.5713,-2.5646,-2.5614,-2.5579,-2.5526,-2.5505,-2.5459,-2.5428,-2.5368,-2.5354,-2.5321,-2.529,-2.5272,-2.5267,-2.5257,-2.5255,-2.5262,-2.5235,-2.5248,-2.5247,-2.525,-2.525,-2.525,-2.524,0,-2.5826,-2.5759,-2.5718,-2.5668,-2.5631,-2.5591,-2.556,-2.5517,-2.5483,-2.5447,-2.541,-2.5368,-2.5352,-2.5332,-2.5312,-2.5272,-2.5261,-2.5272,-2.5222,-2.5221,-2.5237,-2.5244,-2.5257,-2.525,-2.5238,-2.5238,-2.5237,0,-2.5804,-2.5761,-2.5708,-2.5648,-2.5631,-2.5604,-2.5554,-2.552,-2.5471,-2.5448,-2.5413,-2.5382,-2.5344,-2.5335,-2.5283,-2.5291,-2.5269,-2.5246,-2.5245,-2.5238,-2.5229,-2.5238,-2.5247,-2.5246,-2.5234,-2.5234,-2.5235,0,-2.5827,-2.5755,-2.5715,-2.5691,-2.562,-2.5603,-2.5572,-2.5523,-2.5496,-2.5453,-2.5434,-2.5388,-2.5362,-2.5327,-2.5285,-2.5282,-2.5237,-2.5224,-2.5218,-2.5219,-2.5209,-2.521,-2.5214,-2.5195,-2.5195,-2.5195,-2.5195,0,-2.582,-2.5789,-2.5725,-2.57,-2.5665,-2.5619,-2.5586,-2.5552,-2.551,-2.5478,-2.5441,-2.5413,-2.5358,-2.5324,-2.5291,-2.5253,-2.5242,-2.5223,-2.5214,-2.5226,-2.5228,-2.521,-2.5209,-2.5195,-2.5195,-2.5195,-2.5195,0,-2.5839,-2.5794,-2.5748,-2.5685,-2.5669,-2.5647,-2.5593,-2.5568,-2.5534,-2.5495,-2.5483,-2.5429,-2.5387,-2.5341,-2.5283,-2.5261,-2.5226,-2.5213,-2.5242,-2.5237,-2.5234,-2.5235,-2.5226,-2.5223,-2.5206,-2.5206,-2.5206,0,-2.5836,-2.5812,-2.5748,-2.5725,-2.5696,-2.5659,-2.5631,-2.5585,-2.5558,-2.5502,-2.5484,-2.5439,-2.54,-2.5335,-2.5291,-2.5247,-2.5234,-2.5234,-2.5227,-2.524,-2.5234,-2.5236,-2.5234,-2.5236,-2.5236,-2.5236,-2.5237,0,-2.5838,-2.5818,-2.5779,-2.5734,-2.5702,-2.5664,-2.5624,-2.5607,-2.5554,-2.5525,-2.5482,-2.5452,-2.5395,-2.5351,-2.5302,-2.5272,-2.5246,-2.524,-2.5236,-2.5247,-2.5265,-2.5257,-2.5248,-2.524,-2.5239,-2.5239,-2.5239,-2.5239,-2.5846,-2.5824,-2.5776,-2.5735,-2.5701,-2.5665,-2.564,-2.5603,-2.5566,-2.5515,-2.5491,-2.5448,-2.5402,-2.5334,-2.5305,-2.5272,-2.5264,-2.5258,-2.5256,-2.5256,-2.5259,-2.5271,-2.5263,-2.5262,-2.5262,-2.5262,-2.5262,0,-2.5846,-2.5814,-2.5777,-2.5724,-2.5692,-2.5672,-2.5627,-2.5602,-2.5565,-2.5525,-2.5489,-2.544,-2.5398,-2.5352,-2.5308,-2.529,-2.5278,-2.528,-2.5281,-2.5275,-2.5268,-2.5276,-2.5292,-2.5292,-2.5292,-2.5292,-2.5292,-2.5292,-2.5842,-2.5804,-2.5779,-2.5724,-2.5692,-2.565,-2.5627,-2.5595,-2.5563,-2.551,-2.5476,-2.5446,-2.5404,-2.5357,-2.5318,-2.5306,-2.5292,-2.5298,-2.5283,-2.5277,-2.5275,-2.5273,-2.528,-2.5295,-2.5295,-2.5291,-2.5291,-2.5291]},{"header":{"parameterUnit":"m.s-1","parameterCategory":1,"la1":30.2991,"la2":30.254,"lo1":-89.0895,"lo2":-89.0444,"dx":0.0017,"dy":0.0017,"nx":28,"ny":28,"refTime":"2022-11-07T03:00:00:Z","depth":0,"parameterNumber":3,"parameterNumberName":"V-component_of_WINDS"},"data":[0,0,0,0,0,0,0,0,0,0,0,0,0,0,0,0,0,0,0,0,0,0,0,0,0,0,0,0,0,0,0,0,0,0,0,0,0,0,0,0,0,0,0,0,0,0,0,0,0,0,0,0,0,0,0,0,0,0,-0.9848,-0.9848,0,-0.9857,-0.9858,-0.9858,-0.9834,-0.9833,-0.9832,-0.9832,-0.9841,-0.9842,-0.9843,0,0,0,0,0,0,0,0,0,0,0,0,0,-0.9809,-0.981,-0.9848,-0.9848,-0.9848,-0.9857,-0.9858,-0.9858,-0.9834,-0.9833,-0.9832,-0.9831,-0.9841,-0.9842,-0.9843,0,0,0,0,0,0,0,0,0,0,0,0,0,-0.9823,-0.981,-0.9848,-0.9837,-0.9836,-0.9857,-0.9858,-0.9858,-0.9834,-0.9833,-0.9832,-0.9831,-0.9841,-0.9842,-0.9844,-0.9875,0,0,-0.9848,-0.9849,0,0,0,0,0,0,0,0,-0.9822,-0.9824,-0.9839,-0.9838,-0.9837,-0.9843,-0.9847,-0.9864,-0.9834,-0.9835,-0.9832,-0.983,-0.9843,-0.9844,-0.9848,-0.9875,-0.9876,-0.9848,-0.9849,-0.985,-0.985,0,0,0,0,0,0,0,-0.9821,-0.9824,-0.9852,-0.9839,-0.9838,-0.9832,-0.9833,-0.985,-0.9845,-0.9835,-0.9833,-0.9835,-0.9842,-0.9847,-0.9848,-0.9876,-0.9848,-0.9849,-0.985,-0.9851,-0.9931,-0.9933,0,0,0,0,0,0,-0.9821,-0.9823,-0.9851,-0.9852,-0.9827,-0.9834,-0.9835,-0.9842,-0.9845,-0.9844,-0.9836,-0.9833,-0.9845,-0.9847,-0.9849,-0.9888,-0.985,-0.9851,-0.9852,-0.993,-0.9932,-0.9933,0,0,0,0,0,0,-0.9821,-0.9824,-0.9851,-0.9837,-0.984,-0.9836,-0.9845,-0.9843,-0.9848,-0.9845,-0.9844,-0.9842,-0.9844,-0.9847,-0.9869,-0.9888,-0.9852,-0.9853,-0.9929,-0.9931,-0.9932,-0.9965,0,0,0,0,0,0,-0.982,-0.9824,-0.9836,-0.9837,-0.9841,-0.9871,-0.9846,-0.9844,-0.9851,-0.9848,-0.9851,-0.985,-0.9844,-0.9867,-0.9871,-0.9889,-0.9854,-0.9927,-0.9929,-0.9932,-0.9962,-0.9968,-0.9972,0,0,0,0,0,-0.9818,-0.9844,-0.9837,-0.984,-0.9856,-0.9872,-0.9874,-0.9866,-0.9852,-0.9864,-0.9863,-0.985,-0.9884,-0.987,-0.9873,-0.9892,-0.9926,-0.9929,-0.9932,-0.996,-0.9967,-0.9972,0,0,0,0,0,0,-0.9845,-0.9844,-0.9836,-0.9863,-0.9868,-0.9868,-0.9883,-0.9873,-0.9882,-0.988,-0.9869,-0.987,-0.9895,-0.9895,-0.9879,-0.9924,-0.9903,-0.9907,-0.9923,-0.9929,-0.9934,-0.9935,-0.9855,0,0,0,0,0,-0.9854,-0.9868,-0.9866,-0.989,-0.9893,-0.9888,-0.9895,-0.9888,-0.9893,-0.9895,-0.9895,-0.99,-0.9912,-0.992,-0.9931,-0.9961,-0.9963,-0.9976,-0.9981,-0.9985,-0.999,-1.0008,-1.0014,-0.9942,-0.9942,-0.9942,0,0,-0.9873,-0.9874,-0.9883,-0.9896,-0.9899,-0.9914,-0.989,-0.9906,-0.9917,-0.9897,-0.9919,-0.9919,-0.9924,-0.9951,-0.9963,-0.9953,-1.0009,-0.9989,-0.9993,-0.9994,-1.0011,-1.0018,-1.0024,-0.9944,-0.9944,-0.9944,0,0,-0.9915,-0.9917,-0.9938,-0.9942,-0.9947,-0.9943,-0.9948,-0.995,-0.995,-0.9971,-0.9957,-0.997,-0.999,-0.9995,-1.0,-1.0045,-1.0034,-1.0049,-1.0076,-1.0094,-1.01,-1.0105,-1.0123,-1.0129,-1.0052,-1.0052,-1.0052,0,-0.9938,-0.996,-0.995,-0.9968,-0.9975,-0.9957,-0.9979,-0.9983,-0.9991,-0.9996,-0.9984,-1.0011,-1.0012,-1.0041,-1.0052,-1.0056,-1.0063,-1.0049,-1.0099,-1.0104,-1.0109,-1.0126,-1.0133,-1.0054,-1.0054,-1.0054,-1.0054,0,-0.9989,-1.0005,-1.0021,-1.0031,-1.0039,-1.0058,-1.0052,-1.0061,-1.0053,-1.0051,-1.0074,-1.0076,-1.0088,-1.0093,-1.0086,-1.0122,-1.0115,-1.0101,-1.008,-1.0118,-1.0134,-1.0141,-1.0057,-1.0056,-1.0056,-1.0055,0,0,-1.005,-1.0054,-1.0061,-1.0066,-1.007,-1.0082,-1.01,-1.0112,-1.0122,-1.0127,-1.0144,-1.0162,-1.015,-1.0155,-1.0148,-1.0163,-1.0201,-1.0148,-1.0148,-1.016,-1.0243,-1.0256,-1.0264,-1.0193,-1.0194,-1.0195,-1.0244,0,-1.0095,-1.0128,-1.012,-1.0154,-1.0169,-1.0152,-1.0169,-1.0174,-1.0172,-1.0184,-1.0182,-1.0196,-1.0177,-1.0181,-1.0195,-1.0194,-1.0218,-1.019,-1.021,-1.0211,-1.0213,-1.0272,-1.0285,-1.0331,-1.025,-1.0251,-1.0252,0,-1.0151,-1.016,-1.0196,-1.0199,-1.0205,-1.022,-1.0231,-1.0243,-1.0248,-1.0246,-1.0252,-1.0242,-1.0262,-1.0239,-1.0266,-1.0247,-1.0255,-1.0255,-1.0257,-1.0261,-1.0236,-1.028,-1.0345,-1.0353,-1.0261,-1.026,-1.026,0,-1.0196,-1.0216,-1.0241,-1.0245,-1.0249,-1.026,-1.0262,-1.0266,-1.0274,-1.0283,-1.0288,-1.0299,-1.0306,-1.0315,-1.0308,-1.0291,-1.0337,-1.0313,-1.0338,-1.0338,-1.035,-1.035,-1.0421,-1.035,-1.035,-1.035,-1.035,0,-1.0247,-1.0271,-1.0261,-1.0277,-1.0302,-1.0292,-1.0317,-1.0317,-1.0321,-1.0336,-1.0321,-1.0336,-1.0325,-1.0339,-1.0333,-1.0358,-1.0361,-1.036,-1.0359,-1.0363,-1.0364,-1.037,-1.0368,-1.0352,-1.0352,-1.0351,-1.0351,0,-1.0303,-1.0297,-1.0323,-1.0324,-1.0325,-1.0344,-1.0345,-1.036,-1.0357,-1.0377,-1.038,-1.0376,-1.0391,-1.0385,-1.0401,-1.0397,-1.043,-1.0423,-1.0429,-1.0429,-1.0454,-1.0453,-1.0534,-1.0545,-1.0465,-1.0465,-1.0466,0,-1.0338,-1.0355,-1.0359,-1.0368,-1.0371,-1.0386,-1.0395,-1.0385,-1.0394,-1.0402,-1.0416,-1.043,-1.0442,-1.0467,-1.0466,-1.0478,-1.0473,-1.05,-1.0475,-1.048,-1.0477,-1.0477,-1.048,-1.0507,-1.0507,-1.0508,-1.0509,0,-1.0401,-1.0398,-1.0411,-1.0423,-1.0433,-1.0442,-1.045,-1.0458,-1.0449,-1.046,-1.0476,-1.0485,-1.0502,-1.0517,-1.0529,-1.0531,-1.0519,-1.0516,-1.0523,-1.0529,-1.0533,-1.0534,-1.0446,-1.0515,-1.0515,-1.0514,-1.0514,-1.0514,-1.0449,-1.0465,-1.047,-1.0485,-1.049,-1.0498,-1.0512,-1.0511,-1.0524,-1.0538,-1.0531,-1.055,-1.0555,-1.0569,-1.0573,-1.0588,-1.0578,-1.0587,-1.059,-1.0593,-1.0598,-1.0528,-1.059,-1.059,-1.0589,-1.0589,-1.0589,0,-1.0515,-1.0517,-1.0531,-1.0543,-1.0555,-1.0542,-1.055,-1.0561,-1.0579,-1.0584,-1.0596,-1.0615,-1.063,-1.0629,-1.0642,-1.0655,-1.065,-1.0659,-1.066,-1.0661,-1.0605,-1.0599,-1.0663,-1.0663,-1.0663,-1.0663,-1.0663,-1.0663,-1.055,-1.0577,-1.0574,-1.0603,-1.0605,-1.0625,-1.0631,-1.0638,-1.0643,-1.0665,-1.0678,-1.0677,-1.068,-1.0694,-1.0707,-1.0706,-1.0714,-1.0725,-1.0723,-1.0672,-1.0664,-1.0658,-1.0652,-1.0726,-1.0726,-1.0778,-1.0778,-1.0779]}]]